Location: Andershausen
(51.8462°N, 9.8595°E)
Time: 09:37:47
(UTC+00:00)

Cosmos 220 Rocket - Pass Details

Date: 18 November 2025
Orbit: 541 x 577 km, 74.0° (Epoch: 11 December)

Event Time Altitude Azimuth Distance (km) Brightness Sun altitude
Rises 18:05:12 0° 334° (NNW) 2,749 7.7 -24.2°
Reaches altitude 10° 18:07:24 10° 333° (NNW) 1,855 6.8 -24.6°
Enters shadow 18:10:48 58° 316° (NW) 659 4.3 -25.1°
